Dunkirk, NY

1:12 PM EST on December 16, 2017 (GMT -0500)
Chautauqua County-Dunkirk

Weather History for KDKK - June, 2013

Change the Weather History Date:

Thursday, June 13, 2013

  Actual Average Record
Temperature  
Mean Temperature 62 °F -  
Max Temperature 66 °F 78 °F 94 °F (1949)
Min Temperature 57 °F 56 °F 41 °F (1927)
Degree Days  
Heating Degree Days 4    
Growing Degree Days 12 (Base 50)    
Moisture  
Dew Point 60 °F    
Average Humidity 91    
Maximum Humidity 96    
Minimum Humidity 78    
Precipitation  
Precipitation 0.65 in - - ()
Sea Level Pressure  
Sea Level Pressure 29.59 in    
Wind  
Wind Speed 6 mph (North)    
Max Wind Speed 17 mph    
Max Gust Speed 29 mph    
Visibility 7 miles    
Events Rain , Thunderstorm    
Averages and records for this station are not official NWS values.
T = Trace of Precipitation, MM = Missing Value Source: NWS Daily Summary

Daily Weather History Graph

Daily Weather History Graph

Search for Another Location

Airport or City:

Trip Planner

Search our weather history database for the weather conditions in past years. The results will help you decide how hot, cold, wet, or windy it might be!

Date:

Astronomy

Jun. 13, 2013 Rise Set
Actual Time 5:39 AM EDT 8:55 PM EDT
Civil Twilight 5:04 AM EDT 9:30 PM EDT
Nautical Twilight 4:19 AM EDT 10:15 PM EDT
Astronomical Twilight 3:24 AM EDT 11:10 PM EDT
Moon 10:19 AM EDT (6/13) 11:55 PM EDT (6/13)
Length of Visible Light 16h 25m
Length of Day
15h 16m
Waxing Crescent, 21% of the Moon is Illuminated
Jun 13
Waxing Crescent
Jun 16
First Quarter
Jun 23
Full
Jun 30
Last Quarter
Jul 8
New

Hourly Weather History & Observations

Time (EDT) Temp. Dew Point Humidity Pressure Visibility Wind Dir Wind Speed Gust Speed Precip Events Conditions
12:53 AM 64.9 °F 63.0 °F 93% 29.73 in 10.0 mi Variable 3.5 mph - 0.00 in   Overcast
1:53 AM 64.9 °F 63.0 °F 93% 29.69 in 9.0 mi Calm Calm - 0.00 in   Overcast
2:53 AM 64.0 °F 63.0 °F 96% 29.62 in 8.0 mi ENE 4.6 mph - 0.01 in   Scattered Clouds
3:53 AM 66.0 °F 63.0 °F 90% 29.60 in 10.0 mi Variable 3.5 mph - N/A   Overcast
4:39 AM 66.2 °F 62.6 °F 88% 29.59 in 4.0 mi Calm Calm - 0.03 in Rain , Thunderstorm Light Rain
4:50 AM 64.4 °F 62.6 °F 94% 29.57 in 3.0 mi Variable 3.5 mph - 0.06 in Rain Rain
4:51 AM 64.9 °F 63.0 °F 93% 29.57 in 3.0 mi Variable 3.5 mph - 0.06 in Rain Rain
5:01 AM 66.2 °F 62.6 °F 88% 29.56 in 5.0 mi Variable 4.6 mph - 0.03 in Rain , Thunderstorm Light Rain
5:19 AM 64.4 °F 62.6 °F 94% 29.57 in 1.5 mi Variable 3.5 mph - 0.16 in Rain , Thunderstorm Heavy Thunderstorms and Rain
5:23 AM 64.4 °F 62.6 °F 94% 29.57 in 0.8 mi Calm Calm - 0.26 in Rain , Thunderstorm Heavy Thunderstorms and Rain
5:31 AM 64.4 °F 62.6 °F 94% 29.55 in 1.2 mi NE 5.8 mph - 0.29 in Rain , Thunderstorm Rain
5:34 AM 64.4 °F 62.6 °F 94% 29.55 in 3.0 mi NE 5.8 mph - 0.30 in Rain , Thunderstorm Rain
5:43 AM 64.4 °F 62.6 °F 94% 29.54 in 6.0 mi Variable 5.8 mph - 0.31 in Rain Light Rain
5:53 AM 64.9 °F 63.0 °F 93% 29.53 in 6.0 mi Variable 5.8 mph - 0.32 in Rain Light Rain
6:53 AM 64.9 °F 63.0 °F 93% 29.48 in 7.0 mi ENE 8.1 mph - 0.07 in   Overcast
6:59 AM 64.4 °F 62.6 °F 94% 29.48 in 7.0 mi East 6.9 mph - N/A   Overcast
7:53 AM 64.9 °F 63.0 °F 93% 29.47 in 7.0 mi ENE 5.8 mph - N/A   Overcast
8:22 AM 64.4 °F 62.6 °F 94% 29.48 in 2.5 mi WNW 9.2 mph - 0.03 in Rain Rain
8:33 AM 64.4 °F 62.6 °F 94% 29.47 in 2.5 mi NNE 6.9 mph - 0.04 in Rain Light Rain
8:36 AM 64.4 °F 62.6 °F 94% 29.47 in 3.0 mi NE 8.1 mph - 0.05 in Rain Light Rain
8:53 AM 64.0 °F 63.0 °F 96% 29.46 in 4.0 mi WNW 5.8 mph - 0.05 in Rain Light Rain
9:36 AM 62.6 °F 60.8 °F 94% 29.48 in 3.0 mi NNW 12.7 mph 23.0 mph 0.03 in Rain Light Rain
9:49 AM 62.6 °F 60.8 °F 94% 29.48 in 5.0 mi NW 16.1 mph 28.8 mph 0.04 in Rain Light Rain
9:53 AM 63.0 °F 61.0 °F 93% 29.48 in 4.0 mi NW 16.1 mph 28.8 mph 0.05 in Rain Rain
10:06 AM 62.6 °F 60.8 °F 94% 29.49 in 4.0 mi North 15.0 mph 24.2 mph 0.02 in Rain Light Rain
10:21 AM 60.8 °F 59.0 °F 94% 29.49 in 2.0 mi NNW 12.7 mph 21.9 mph 0.06 in Rain Rain
10:37 AM 60.8 °F 59.0 °F 94% 29.49 in 4.0 mi NNW 10.4 mph 21.9 mph 0.08 in Rain Light Rain
10:53 AM 60.1 °F 59.0 °F 96% 29.50 in 10.0 mi NNW 10.4 mph 21.9 mph 0.08 in Rain Light Rain
11:38 AM 60.8 °F 59.0 °F 94% 29.53 in 10.0 mi NNW 12.7 mph 20.7 mph 0.00 in   Overcast
11:53 AM 60.1 °F 59.0 °F 96% 29.54 in 10.0 mi NNW 13.8 mph 20.7 mph 0.00 in   Overcast
12:53 PM 60.1 °F 57.9 °F 93% 29.57 in 10.0 mi NNW 17.3 mph 21.9 mph 0.00 in   Overcast
1:53 PM 59.0 °F 57.0 °F 93% 29.60 in 9.0 mi NNW 15.0 mph 21.9 mph 0.01 in   Overcast
2:53 PM 59.0 °F 57.0 °F 93% 29.65 in 10.0 mi NNW 11.5 mph 23.0 mph 0.00 in   Overcast
3:53 PM 59.0 °F 57.0 °F 93% 29.68 in 10.0 mi NNW 12.7 mph 21.9 mph N/A   Overcast
4:11 PM 60.8 °F 57.2 °F 88% 29.69 in 10.0 mi North 10.4 mph - N/A   Overcast
4:37 PM 62.6 °F 57.2 °F 82% 29.70 in 10.0 mi North 9.2 mph - N/A   Overcast
4:53 PM 63.0 °F 57.0 °F 81% 29.70 in 10.0 mi North 10.4 mph 23.0 mph N/A   Mostly Cloudy
5:04 PM 62.6 °F 57.2 °F 82% 29.70 in 10.0 mi North 12.7 mph 23.0 mph N/A   Scattered Clouds
5:53 PM 63.0 °F 55.9 °F 78% 29.70 in 10.0 mi NNE 12.7 mph 21.9 mph N/A   Partly Cloudy
6:53 PM 62.1 °F 55.9 °F 80% 29.73 in 10.0 mi NNE 10.4 mph 19.6 mph N/A   Scattered Clouds
7:53 PM 60.1 °F 55.0 °F 83% 29.76 in 10.0 mi Variable 6.9 mph - N/A   Clear
8:53 PM 60.1 °F 55.0 °F 83% 29.79 in 10.0 mi Variable 4.6 mph - N/A   Overcast
9:53 PM 57.9 °F 55.9 °F 93% 29.80 in 10.0 mi Variable 3.5 mph - N/A   Mostly Cloudy
10:53 PM 57.9 °F 55.9 °F 93% 29.81 in 10.0 mi West 6.9 mph - N/A   Overcast
11:53 PM 57.9 °F 55.9 °F 93% 29.81 in 10.0 mi WSW 3.5 mph - N/A   Mostly Cloudy